Regional Weather Roundup
Issued by NWS Huntsville, AL

Home | Current Version | Previous Version | Text Only | Print | Product List | Glossary On
Versions: 1 2 3 4 5 6 7 8 9 10 11 12 13 14 15 16 17 18 19 20 21 22 23 24 25 26 27 28 29 30 31 32 33 34 35 36 37 38 39 40 41 42 43 44 45 46 47 48 49 50
000
ASUS44 KHUN 290110
RWRHUN

WEATHER ROUNDUP FOR THE TENNESSEE VALLEY
NATIONAL WEATHER SERVICE HUNTSVILLE AL
700 PM CST SUN DEC 28 2014

ALZ001>004-290200-
NORTHWEST ALABAMA

CITY           SKY/WX    TMP DP  RH WIND       PRES   REMARKS
SHOALS AIRPORT LGT RAIN  44  41  89 N5        30.15R
SHOALS TVA RES   N/A     43 N/A N/A MISG        N/A
$$

ALZ005>007-016-290200-
NORTH CENTRAL ALABAMA

CITY           SKY/WX    TMP DP  RH WIND       PRES   REMARKS
DECATUR AP     RAIN      45  43  93 NE5       30.12F
HUNTSVILLE AP  LGT RAIN  47  43  86 NE6       30.12S
HUN NWS/UAH      N/A     44  42  91 N3          N/A
MERIDIANVILLE  RAIN      43  39  87 N5        30.12S
REDSTONE ARSN  LGT RAIN  45  43  93 NE8       30.11S FOG
VINEMONT AP    CLOUDY    45  44  98 NE5       30.12S
$$

ALZ008>010-290200-
NORTHEAST ALABAMA

CITY           SKY/WX    TMP DP  RH WIND       PRES   REMARKS
ALBERTVILLE    CLOUDY    46  46 100 N3        30.10R
FORT PAYNE     CLOUDY    50  46  87 CALM      30.09F
SCOTTSBORO AP  CLOUDY    48  46  93 CALM      30.11F
VALLEY HEAD      N/A     52 N/A N/A MISG        N/A
$$

TNZ076-096-097-290200-
SOUTHEASTERN MIDDLE TENNESSEE

CITY           SKY/WX    TMP DP  RH WIND       PRES   REMARKS
TULLAHOMA      CLOUDY    39  39 100 CALM      30.13F
WINCHESTER     CLOUDY    43  43 100 CALM      30.13S
$$

...SURROUNDING SITES...

CITY           SKY/WX    TMP DP  RH WIND       PRES   REMARKS
ATLANTA        DRIZZLE   60  58  92 CALM      30.08S FOG
ANNISTON       CLOUDY    58  56  93 N8        30.08S FOG
BIRMINGHAM     CLOUDY    52  51  97 N7        30.11S FOG
CHATTANOOGA    CLOUDY    53  50  89 NE8       30.11R
DALTON         CLOUDY    54  54 100 N7        30.09F
GADSDEN        CLOUDY    52  46  82 NW8       30.10S
GOLDEN TRNGL   NOT AVBL
HALEYVILLE     RAIN      43  43 100 NE6       30.12S FOG
JACKSON TN     FOG       37  36  96 N8        30.17F VSB 1   WCI  31
MEMPHIS        CLOUDY    39  35  86 NE6       30.17S WCI  35
NASHVILLE      CLOUDY    38  37  97 N5        30.17F WCI  34
OXFORD MS      CLOUDY    39  37  93 N5        30.18R
ROME           LGT RAIN  57  56  96 NE5       30.07F
SAVANNAH       CLOUDY    39  39 100 N5        30.15F
TUPELO         LGT RAIN  43  40  89 NE9       30.15S
TUSCALOOSA     CLOUDY    52  51  97 N7        30.09F FOG
$$

...GULF COAST WEATHER...

CITY           SKY/WX    TMP DP  RH WIND       PRES   REMARKS
GULFPORT       CLOUDY    64  60  87 N9        30.04R
PASCAGOULA     CLOUDY    65  64  97 CALM      30.03R
MOBILE         CLOUDY    65  64  97 SW3       30.03S
GULF SHORES    FOG       62  62 100 CALM      30.02S VSB 1/2
PENSACOLA      MOCLDY    63  62  97 CALM      30.01S
DESTIN         MOCLDY    68  67  96 CALM      30.02F
PANAMA CITY    MOCLDY    69  69 100 SE9       30.07R
APPALACHICOLA  FOG       69  65  86 SE5       30.08S VSB 1
$$



USA.gov is the U.S. government's official web portal to all federal, state and local government web resources and services.